Wind_Speed
15 16 17 18 19 19 19 19 20 20 18 17 16 16 14 15 19 20 14 10 16 17 21 22 22 17 13 8 3 7 9 15 6 13 15 15 15 12 8 5 5 4 4 26 34
15 15 16 16 17 18 19 19 19 20 20 18 18 17 16 14 16 13 9 17 19 19 20 24 24 20 17 10 11 23 7 7 12 19 11 8 1 16 11 6 6 6 16 30 35
16 17 17 17 17 17 18 19 19 19 20 19 19 20 18 17 15 10 17 19 18 16 16 21 22 21 19 14 12 20 16 7 11 9 9 8 12 19 11 3 5 8 16 25 30
19 19 19 18 18 18 18 19 19 19 19 20 20 20 21 18 11 3 14 18 15 14 19 23 26 23 21 19 14 22 20 16 13 4 8 5 18 21 11 3 6 6 10 17 25
21 21 22 22 22 21 20 20 20 20 19 19 21 21 22 22 8 18 10 15 19 19 19 24 30 26 24 20 15 22 23 9 7 3 17 5 16 14 15 7 6 9 13 16 21
24 24 24 24 25 25 24 23 23 22 22 20 21 23 24 22 15 20 15 16 13 18 19 24 30 27 20 20 21 18 21 21 10 5 17 11 17 18 12 4 6 10 13 16 17
24 24 24 24 24 25 27 25 25 25 24 24 22 25 27 15 19 21 19 16 18 15 20 18 23 24 20 20 19 22 23 22 21 11 21 14 19 20 19 8 3 8 13 16 18
25 26 26 26 26 26 27 26 25 26 26 26 26 27 29 18 21 24 20 12 17 17 18 20 21 25 23 19 21 25 22 30 28 21 17 31 19 33 28 14 14 10 14 14 15
25 24 24 26 27 28 30 28 24 24 24 26 29 29 27 26 23 19 22 19 14 20 17 21 28 26 22 27 27 29 30 25 25 23 18 20 16 33 33 15 13 16 15 17 13
26 25 27 28 29 31 30 30 23 21 19 23 29 27 20 16 10 17 22 21 19 20 18 25 25 25 29 33 37 31 23 27 29 23 24 22 22 35 35 25 11 26 20 18 20
28 26 25 25 26 29 32 32 33 31 31 25 24 29 25 15 21 18 22 26 23 22 29 29 31 43 42 38 32 28 31 24 27 26 26 28 27 33 36 30 19 25 28 20 24
27 29 28 27 26 25 29 31 33 34 50 34 27 34 29 21 29 21 16 31 34 38 30 27 44 40 35 35 33 33 35 32 25 26 27 30 28 28 39 33 31 11 31 30 25
30 29 30 28 25 24 25 25 25 30 46 23 10 12 23 34 35 31 25 30 39 40 41 43 37 35 34 35 36 37 39 37 32 29 26 32 33 30 31 32 38 29 17 38 30
33 31 30 28 27 25 24 23 24 23 23 19 20 18 17 22 44 32 32 31 40 44 43 45 36 21 38 40 39 41 39 35 34 30 24 29 14 35 39 36 36 27 22 29 29
34 34 30 34 31 27 25 19 16 11 6 11 11 8 13 7 14 27 35 35 44 40 40 50 40 40 40 44 39 38 34 35 37 36 32 24 32 36 39 38 29 33 35 31 30
33 36 34 30 29 27 20 12 10 2 6 13 25 22 16 7 14 22 13 37 36 39 40 46 35 33 46 33 35 34 32 32 34 36 24 36 27 31 38 39 31 34 32 35 28
35 36 37 29 17 14 14 11 6 5 12 18 35 31 28 33 17 10 23 36 40 42 49 37 47 39 28 42 31 35 34 20 17 20 14 28 27 24 22 36 33 35 34 37 35
33 35 37 16 17 25 13 11 7 9 15 27 28 33 24 27 23 27 15 28 38 44 23 43 36 50 41 39 38 40 45 16 8 8 12 30 32 36 33 26 26 35 37 36 40
34 34 21 12 19 28 9 11 12 18 16 26 35 23 32 28 32 37 31 15 21 47 47 29 50 19 48 38 39 42 47 37 20 21 9 19 32 36 38 41 37 29 33 33 39
41 22 14 18 25 13 9 13 22 15 19 19 23 22 30 27 27 28 29 4 15 7 35 52 32 36 34 43 41 45 36 36 34 9 9 21 35 44 39 41 45 41 37 43 47
35 18 2 17 13 9 16 17 17 20 19 19 22 21 20 17 18 22 19 29 10 11 6 20 39 50 33 48 56 41 40 45 33 29 6 4 20 36 45 40 38 44 37 41 47
37 21 4 16 8 11 14 13 17 19 20 16 15 14 15 23 22 24 27 23 38 25 18 13 19 37 54 33 45 43 45 39 32 30 35 28 27 21 19 31 38 47 37 28 44
39 25 13 13 9 13 14 17 14 14 16 17 18 13 14 19 20 17 22 24 39 22 19 19 5 17 37 41 35 55 43 51 37 34 35 16 15 17 17 21 33 38 38 35 26
37 28 30 7 8 9 13 14 16 16 15 21 16 17 13 19 18 21 26 21 34 17 18 24 16 24 19 36 30 27 50 42 40 38 38 35 24 10 7 20 31 36 38 30 39
33 28 26 22 14 13 10 18 19 17 20 16 18 14 18 19 19 20 18 23 27 25 18 23 18 18 27 27 25 30 51 46 47 42 37 37 24 17 10 12 24 28 22 31 40
33 32 28 17 15 16 9 14 16 17 16 19 18 18 20 18 19 24 16 19 21 30 22 26 16 18 18 28 20 15 19 50 47 44 44 32 34 25 21 16 19 23 27 27 35
33 32 27 27 19 15 12 14 19 20 18 13 20 23 19 22 22 23 19 20 20 27 34 22 22 23 5 9 7 10 25 19 48 43 40 37 35 25 24 25 22 28 28 29 30
Wind_Direction
316 314 312 309 308 308 308 307 306 305 305 303 298 292 287 275 259 256 245 240 231 222 213 214 213 213 211 237 167 259 164 314 341 342 122 128 107 124 136 190 84 85 114 160 152
326 322 318 314 310 305 303 302 302 303 303 300 296 290 287 283 272 264 245 225 227 225 218 211 209 208 213 181 199 222 270 137 74 94 119 90 252 140 152 177 196 172 158 160 161
327 325 322 318 313 309 305 300 296 297 298 296 293 291 287 283 281 252 243 230 235 230 216 212 209 206 207 195 172 217 224 236 284 330 285 121 166 162 185 218 100 169 157 167 163
323 319 316 312 309 307 305 301 297 293 289 290 289 285 285 281 275 358 228 238 237 225 216 208 199 198 202 196 180 220 245 247 278 254 212 206 156 177 204 170 91 147 147 160 163
325 321 316 312 307 303 299 297 293 289 286 282 281 281 279 274 311 262 244 232 232 225 219 209 206 196 200 198 207 216 240 234 240 173 203 124 124 151 187 201 204 180 163 160 169
332 329 325 320 314 307 299 292 288 286 283 278 276 273 272 273 273 267 250 243 241 231 224 214 210 196 205 212 215 209 238 222 179 140 189 151 168 163 181 187 159 178 174 170 167
350 345 340 334 325 316 307 297 290 283 279 277 272 268 264 275 269 261 253 233 231 228 224 219 213 187 201 221 217 230 254 235 237 258 219 220 175 167 178 182 127 167 174 175 173
350 347 347 345 342 338 329 309 295 284 277 275 271 266 262 265 257 260 265 234 225 219 217 209 207 193 205 215 225 245 243 236 248 235 233 207 212 177 199 271 186 175 175 177 179
348 348 350 348 344 345 345 340 322 291 279 273 269 269 272 258 253 255 250 259 234 216 207 206 186 192 198 225 236 241 248 245 235 223 217 217 222 206 202 191 196 189 178 187 171
340 340 341 342 342 343 344 341 335 323 297 280 268 264 265 269 249 240 232 230 230 210 209 201 187 209 217 215 225 228 237 228 239 235 215 218 232 212 176 201 243 213 202 190 195
334 335 337 339 340 338 341 345 347 340 316 299 267 256 240 211 205 241 226 211 194 214 208 197 200 213 215 212 222 227 228 234 230 231 223 216 219 201 195 202 174 180 216 215 201
331 331 332 332 335 339 341 347 350 340 323 313 283 264 241 223 220 210 234 206 192 210 201 210 216 212 220 221 219 223 234 241 235 230 229 214 219 212 195 206 208 244 219 215 210
339 334 330 333 330 330 339 342 345 341 327 10 320 292 253 222 236 223 201 225 203 206 205 208 223 210 217 218 221 226 231 238 238 235 235 222 224 225 216 214 204 226 227 207 227
348 346 337 333 325 325 331 334 346 348 325 23 21 19 350 259 232 222 211 227 211 215 210 221 213 226 208 221 218 225 224 229 242 251 259 227 206 229 213 211 209 230 224 183 215
345 345 342 334 328 320 319 336 355 23 318 347 348 327 4 287 259 246 215 205 220 212 210 218 220 213 216 214 217 227 222 232 241 253 261 245 211 232 226 207 219 224 206 204 209
342 339 335 333 322 321 335 353 17 17 252 312 332 320 348 353 261 233 242 206 229 217 224 227 227 222 220 222 220 222 228 230 239 246 257 253 232 219 224 210 221 207 206 204 215
342 337 337 338 332 320 351 22 359 228 318 328 341 313 313 342 319 311 250 219 215 218 230 230 229 224 221 224 217 215 217 227 231 231 236 251 250 241 225 214 218 210 212 213 222
341 339 339 330 358 1 343 7 278 293 315 307 333 329 331 324 323 332 301 237 227 221 230 228 230 222 217 221 216 205 214 209 209 212 239 242 250 251 241 234 226 224 220 217 218
344 342 343 347 351 340 5 323 311 333 324 323 321 337 329 315 310 324 324 306 252 221 226 224 238 238 219 220 219 209 217 221 242 225 235 220 252 254 241 235 233 227 216 212 222
348 356 12 336 333 333 317 286 313 328 321 323 325 322 316 320 311 320 318 321 334 220 225 235 262 232 228 215 224 226 211 217 223 197 221 231 227 234 235 233 229 228 219 226 218
351 10 249 325 322 328 285 299 317 323 316 325 306 318 309 324 322 306 288 295 329 348 264 241 237 236 226 213 217 215 220 211 222 229 187 228 243 247 245 235 224 212 213 216 213
355 6 53 325 326 325 329 333 319 327 335 325 299 284 326 323 302 307 289 278 298 333 319 310 260 237 239 222 218 219 218 212 210 218 233 242 247 302 297 236 221 206 209 218 216
351 358 349 284 336 320 312 321 334 315 321 316 322 308 309 320 316 300 302 309 281 307 327 344 267 251 243 246 234 216 212 219 217 216 231 233 255 276 280 207 201 198 204 208 210
350 350 354 158 258 293 320 330 319 324 311 326 306 311 316 300 313 318 305 306 284 290 331 333 287 248 255 233 233 233 209 211 215 209 226 239 242 257 128 187 195 198 207 211 208
348 347 341 325 310 297 322 310 300 324 318 331 314 327 301 302 300 301 311 306 292 280 347 0 299 272 251 225 222 253 207 205 214 217 217 233 236 213 212 154 178 189 199 194 201
341 340 338 343 338 300 302 309 314 309 314 309 308 305 316 294 283 312 315 321 309 267 333 5 317 319 257 226 259 268 226 202 209 219 226 237 233 206 193 179 180 178 190 176 191
337 340 334 331 340 331 298 287 296 296 289 289 302 302 293 294 290 306 301 295 296 290 293 326 342 342 292 217 261 252 219 218 203 213 221 229 229 204 189 192 197 183 177 173 178
Height
3144 3142 3140 3138 3136 3134 3132 3130 3128 3126 3125 3124 3123 3121 3121 3120 3120 3121 3123 3129 3128 3130 3131 3135 3139 3144 3147 3149 3152 3155 3154 3156 3155 3152 3152 3155 3150 3153 3155 3152 3153 3155 3157 3160 3162
3142 3140 3138 3135 3133 3131 3129 3127 3126 3124 3122 3121 3120 3118 3118 3117 3116 3118 3122 3122 3124 3126 3129 3133 3136 3141 3145 3150 3151 3153 3158 3156 3152 3155 3154 3159 3156 3155 3151 3152 3155 3156 3157 3161 3163
3140 3138 3135 3133 3130 3128 3126 3124 3122 3121 3119 3118 3117 3115 3115 3114 3115 3115 3115 3118 3120 3123 3126 3130 3134 3139 3143 3148 3150 3155 3155 3153 3154 3158 3160 3158 3160 3156 3154 3154 3156 3156 3155 3159 3162
3137 3135 3132 3130 3127 3125 3123 3121 3119 3117 3116 3114 3113 3112 3111 3111 3114 3112 3113 3115 3118 3120 3122 3125 3129 3134 3139 3144 3148 3154 3153 3155 3155 3159 3157 3158 3159 3159 3154 3156 3157 3158 3158 3159 3162
3134 3131 3128 3126 3124 3121 3119 3116 3114 3112 3111 3110 3109 3108 3108 3108 3111 3108 3112 3112 3114 3116 3119 3122 3125 3131 3135 3141 3147 3151 3152 3155 3151 3154 3154 3153 3154 3154 3155 3157 3158 3158 3159 3160 3162
3130 3127 3124 3121 3118 3116 3114 3111 3109 3108 3106 3105 3104 3103 3103 3104 3106 3105 3108 3110 3111 3114 3116 3118 3122 3128 3135 3139 3144 3146 3150 3151 3151 3154 3155 3152 3156 3155 3154 3156 3156 3158 3160 3161 3162
3128 3124 3121 3117 3114 3110 3107 3105 3104 3102 3100 3100 3099 3097 3096 3103 3102 3100 3102 3106 3107 3110 3113 3117 3122 3125 3132 3137 3139 3142 3149 3149 3149 3148 3153 3156 3155 3155 3154 3155 3158 3158 3161 3161 3163
3126 3121 3118 3113 3110 3106 3102 3098 3097 3095 3094 3093 3092 3091 3089 3096 3095 3095 3098 3102 3104 3107 3110 3114 3119 3122 3127 3134 3136 3139 3141 3144 3143 3146 3146 3153 3151 3152 3151 3151 3155 3159 3161 3162 3163
3123 3118 3115 3110 3106 3102 3098 3093 3090 3087 3087 3086 3086 3085 3086 3087 3090 3094 3094 3096 3101 3104 3107 3111 3116 3119 3125 3128 3131 3130 3133 3136 3138 3141 3144 3146 3147 3147 3151 3152 3159 3160 3158 3161 3163
3120 3116 3111 3107 3102 3097 3094 3089 3085 3082 3080 3079 3077 3082 3083 3084 3085 3087 3089 3093 3095 3100 3103 3106 3110 3114 3116 3119 3117 3125 3129 3132 3133 3136 3140 3142 3143 3144 3145 3146 3152 3166 3164 3162 3161
3118 3114 3109 3105 3100 3093 3090 3085 3080 3074 3074 3074 3072 3068 3073 3075 3076 3078 3083 3087 3092 3096 3095 3100 3104 3097 3103 3111 3119 3125 3126 3128 3129 3132 3136 3137 3141 3140 3141 3145 3145 3156 3164 3163 3165
3116 3111 3107 3103 3098 3093 3087 3082 3078 3072 3050 3060 3059 3059 3068 3073 3069 3072 3078 3080 3083 3083 3093 3098 3088 3096 3107 3112 3115 3119 3120 3123 3126 3126 3131 3134 3137 3141 3136 3138 3142 3152 3163 3165 3166
3114 3109 3104 3100 3096 3092 3086 3082 3077 3071 3061 3050 3046 3050 3057 3064 3060 3066 3069 3074 3075 3079 3082 3081 3081 3096 3102 3106 3110 3111 3113 3116 3120 3122 3125 3128 3131 3136 3137 3136 3141 3144 3147 3156 3162
3112 3107 3101 3098 3094 3088 3083 3079 3074 3068 3061 3054 3052 3053 3050 3053 3050 3062 3062 3071 3072 3073 3079 3078 3086 3089 3094 3098 3103 3105 3110 3113 3114 3118 3119 3122 3124 3127 3131 3131 3134 3136 3138 3143 3154
3108 3103 3099 3090 3088 3083 3081 3075 3071 3068 3069 3058 3052 3052 3044 3049 3059 3058 3061 3061 3061 3068 3078 3065 3075 3081 3086 3087 3097 3101 3109 3111 3110 3112 3114 3116 3116 3118 3123 3126 3129 3131 3133 3136 3143
3104 3099 3093 3090 3082 3078 3075 3072 3068 3071 3065 3059 3052 3045 3044 3048 3048 3049 3056 3057 3064 3067 3066 3069 3076 3078 3080 3088 3094 3101 3105 3108 3108 3109 3105 3106 3113 3111 3111 3117 3121 3123 3128 3133 3139
3101 3093 3085 3082 3080 3076 3072 3069 3070 3066 3062 3056 3049 3048 3050 3047 3042 3044 3045 3051 3054 3060 3054 3066 3064 3071 3076 3082 3087 3093 3098 3101 3104 3098 3097 3102 3104 3103 3107 3112 3117 3120 3124 3128 3131
3095 3087 3080 3076 3074 3071 3072 3071 3072 3065 3062 3056 3052 3049 3050 3047 3038 3032 3032 3039 3050 3052 3056 3055 3055 3055 3067 3070 3079 3081 3085 3085 3095 3094 3095 3099 3090 3093 3104 3108 3114 3117 3118 3122 3124
3089 3083 3074 3072 3071 3072 3073 3070 3069 3067 3063 3056 3049 3048 3046 3046 3045 3040 3035 3035 3038 3048 3048 3050 3042 3056 3059 3067 3072 3075 3075 3087 3088 3090 3091 3091 3093 3096 3096 3099 3103 3110 3116 3116 3122
3083 3077 3074 3073 3073 3072 3072 3070 3071 3065 3060 3058 3056 3055 3049 3050 3049 3049 3039 3029 3028 3029 3038 3041 3048 3048 3053 3063 3064 3064 3077 3081 3081 3087 3091 3086 3086 3081 3088 3089 3093 3099 3108 3110 3112
3082 3077 3075 3074 3071 3070 3068 3068 3066 3062 3059 3058 3055 3053 3051 3049 3048 3049 3043 3031 3027 3021 3027 3034 3034 3029 3045 3044 3046 3058 3063 3069 3078 3078 3082 3085 3075 3077 3075 3079 3084 3091 3099 3103 3108
3079 3074 3071 3069 3070 3067 3065 3063 3062 3060 3055 3053 3052 3052 3049 3048 3044 3043 3041 3039 3029 3030 3025 3029 3024 3025 3025 3033 3044 3053 3056 3062 3064 3069 3073 3072 3070 3066 3067 3064 3076 3084 3092 3100 3104
3074 3070 3069 3066 3066 3062 3061 3059 3059 3057 3052 3052 3050 3048 3049 3047 3042 3039 3037 3035 3029 3028 3026 3025 3021 3021 3022 3031 3033 3038 3046 3054 3062 3069 3066 3072 3070 3070 3063 3059 3070 3080 3089 3096 3101
3073 3065 3062 3061 3061 3059 3057 3056 3055 3055 3051 3050 3047 3047 3043 3042 3039 3034 3032 3029 3025 3023 3025 3023 3016 3018 3014 3018 3027 3032 3037 3047 3056 3059 3062 3061 3070 3070 3065 3064 3071 3080 3086 3092 3099
3072 3070 3063 3059 3057 3056 3055 3055 3052 3051 3048 3046 3044 3044 3040 3037 3035 3032 3028 3025 3022 3019 3018 3018 3011 3014 3009 3013 3020 3026 3032 3040 3043 3053 3054 3057 3068 3069 3069 3068 3072 3079 3084 3089 3096
3069 3065 3061 3057 3055 3053 3052 3051 3049 3046 3045 3042 3041 3039 3037 3034 3029 3028 3025 3023 3020 3015 3013 3011 3010 3006 3002 3009 3017 3021 3023 3028 3040 3046 3053 3055 3061 3066 3069 3069 3073 3078 3082 3086 3091
3066 3062 3056 3053 3051 3049 3049 3047 3044 3042 3039 3037 3037 3034 3032 3030 3027 3023 3023 3023 3021 3019 3014 3015 3013 3009 3005 3009 3013 3015 3020 3028 3034 3042 3048 3050 3054 3063 3067 3066 3069 3073 3079 3082 3087